Terminal Aerodrome Forecast
Issued by NWS Jackson, MS

Home | Current Version | Previous Version | Text Only | Print | Product List | Glossary On
Versions: 1 2 3 4 5 6 7 8 9 10 11 12 13
000
FTUS44 KJAN 292300
TAFJAN
TAF
KJAN 292320Z 3000/3024 36014G19KT P6SM FEW050
     FM300100 02003KT P6SM SKC
     FM301300 01007KT P6SM SCT250=

USA.gov is the U.S. government's official web portal to all federal, state and local government web resources and services.